Simultaneous Nadir Overpasses (SNOs) Predictions

Prediction of SNOs between AQUA and NOAA-19 Satellite Orbit:

Table of predicted SNOs for the next 14.0 days since TLE Epoch: 9/28/2019
Index Date (AQUA) Time (AQUA) Lat,Lon (AQUA) SZA (AQUA ) Date (NOAA-19) Time (NOAA-19) Lat,Lon (NOAA-19) SZA (NOAA-19 ) Distance(km) Time Diff (sec)
1 09/29/2019 17:05:50 80.23,-109.05 84.00 09/29/2019 17:05:07 80.22,-109.13 84.01 1.93 43
2 09/29/2019 17:55:17 -80.25, 58.37 95.95 09/29/2019 17:56:07 -80.24, 58.46 95.99 2.32 50
3 10/01/2019 22:39:34 -80.22, -12.37 95.18 10/01/2019 22:38:31 -80.21, -12.52 95.15 2.94 63
4 10/01/2019 23:29:01 80.23, 155.18 84.86 10/01/2019 23:29:29 80.23, 155.08 84.86 2.02 28
5 10/04/2019 05:02:45 -80.21,-108.13 94.33 10/04/2019 05:02:53 -80.24,-108.13 94.31 2.57 8
6 10/06/2019 10:36:30 80.23, -11.74 86.55 10/06/2019 10:36:14 80.22, -11.62 86.54 2.58 16
7 10/08/2019 16:10:14 -80.22, 84.99 92.65 10/08/2019 16:09:40 -80.21, 84.88 92.63 2.29 34
8 10/08/2019 16:59:41 80.24,-107.58 87.41 10/08/2019 17:00:36 80.23,-107.45 87.38 2.43 55
9 10/10/2019 21:43:58 80.21,-178.44 88.19 10/10/2019 21:42:59 80.21,-178.36 88.20 1.62 59




NCC Satellite Simultaneous Nadir Overpasses (SNOs) Prediction Service
